This demonstration page uses our WeatherBlox Daily Observations layout. Learn more.

Left ArrowRight Arrow

38.89511, -77.03637

Hourly Observations for May 22, 2019

Temp ( °F °C ) Dew Point ( °F °C ) Humidity (%) Winds ( mph kmh ) Pressure ( in mb ) Visibility ( mi km ) Precip ( " mm )
12:52 am 00:52 Mostly Cloudy 62 16.7 44 6.7 52 52 NNW 6 9 30.14 1021 10 16 N/A
1:52 am 01:52 Mostly Cloudy 61 16.1 45 7.2 56 56 NNW 6 9 30.16 1021 10 16 N/A
2:52 am 02:52 Mostly Clear 61 16.1 44 6.7 54 54 NE 8 13 30.18 1022 10 16 N/A
3:52 am 03:52 Mostly Cloudy 59 15 45 7.2 60 60 NE 7 11 30.19 1022 10 16 N/A
4:52 am 04:52 Mostly Cloudy 58 14.4 44 6.7 60 60 ENE 5 7 30.21 1023 10 16 N/A
5:52 am 05:52 Mostly Cloudy 58 14.4 43 6.1 58 58 NNE 3 6 30.23 1024 10 16 N/A
6:52 am 06:52 Mostly Cloudy 59 15 44 6.7 58 58 NNE 5 7 30.25 1024 10 16 N/A
7:52 am 07:52 Mostly Cloudy 62 16.7 44 6.7 52 52 ENE 6 9 30.27 1025 10 16 N/A
8:52 am 08:52 Mostly Cloudy 63 17.2 44 6.7 50 50 NE 6 9 30.28 1026 10 16 N/A
9:52 am 09:52 Mostly Cloudy 67 19.4 42 5.6 41 41 E 9 15 30.29 1026 10 16 N/A
10:52 am 10:52 Mostly Cloudy 67 19.4 43 6.1 42 42 E 6 9 30.29 1026 10 16 N/A
11:52 am 11:52 Mostly Cloudy 68 20 40 4.4 36 36 SE 7 11 30.28 1026 10 16 N/A
12:52 pm 12:52 Cloudy 68 20 41 5 38 38 S 5 7 30.29 1026 10 16 N/A
1:52 pm 13:52 Cloudy 69 20.6 41 5 36 36 S 7 11 30.27 1025 10 16 N/A
2:52 pm 14:52 Cloudy 71 21.7 44 6.7 38 38 S 9 15 30.27 1025 10 16 N/A
3:52 pm 15:52 Mostly Cloudy 70 21.1 45 7.2 41 41 S 7 11 30.26 1025 10 16 N/A
4:52 pm 16:52 Mostly Cloudy 72 22.2 46 7.8 40 40 S 8 13 30.24 1024 10 16 N/A
5:52 pm 17:52 Mostly Cloudy 71 21.7 48 8.9 44 44 S 8 13 30.24 1024 10 16 N/A
6:52 pm 18:52 Mostly Cloudy 70 21.1 50 10 49 49 S 10 17 30.22 1023 10 16 N/A
7:52 pm 19:52 Mostly Cloudy 69 20.6 49 9.4 49 49 S 7 11 30.23 1024 10 16 N/A
8:52 pm 20:52 Mostly Cloudy 68 20 49 9.4 51 51 SSE 7 11 30.24 1024 10 16 N/A
9:52 pm 21:52 Mostly Cloudy 67 19.4 47 8.3 49 49 SSE 12 19 30.25 1025 10 16 N/A
10:52 pm 22:52 Mostly Cloudy 66 18.9 49 9.4 54 54 S 10 17 30.26 1025 8 13 N/A
11:52 pm 23:52 Mostly Cloudy 64 17.8 50 10 60 60 S 9 15 30.24 1024 9 14 N/A

Powered by AerisWeather